SCOUT A DEB, 2141

Orbit data source: Space-Track

SCOUT A DEB, 2141 is space debris in LEO originally from a launch on Fri, 28 Jan 1966 UTC launched from the Air Force Western Test Range (AFWTR). Debris objects in space refer to the collection of defunct objects orbiting the Earth. Examples of debris include non-operational satellites, rocket bodies, and fragments generated from explosions, collisions, or faulty payload assembly.

Loading next visibility...
Identifier
2141, 1966-005D
Orbit
LEO
Country
Flag of USUS
Related business
Manufacturer
Unknown
Mission
Spacecraft
Bus & Motor
Unknown
Mass
Unknown
Launch date (UTC)
1966-01-28 (60 years ago)
Launch vehicle
Unknown
Launch site
Air Force Western Test Range (AFWTR)
Object type
Payload
Rocket body
Debris
Shape & HBR
Unknown shape, 0.1 m
Radar Cross Section
Medium (>0.1 m² and <1 m²)

Expand to show TLE details & history
Last TLE update: 17 hours ago

TLE from 17 hours ago
0 SCOUT A DEB
1  2141U 66005D   26197.59868859  .00000222  00000-0  12280-3 0  9990
2  2141  90.2461 259.4009 0116068 331.6206  27.8685 14.05916209 72714
Epoch: 2026-07-16T14:22Z
TLE epoch observation values (Epoch: 2026-07-16T14:22:06.694Z)
Latitude
0.00002°
Longitude
109.43517°
Altitude
802.211 km
Speed
7.49 km/s
True Right ascension
17h 17m 36s
True Declination
0° 00' 00"
Sunlit
Object was in full shadow at epoch
Visualization orbit readout
Latitude
Unknown
Longitude
Unknown
Altitude
Unknown
Speed
Unknown
Apparent Right ascension
Unknown
Apparent Declination
Unknown
Sunlit
N/A
Visualization observer readout
Local Sidereal Time
20:29:18
Azimuth
Unknown
Elevation
Unknown
Doppler factor
Unknown
Orbital elements
Apogee altitude
954.48 km
Perigee altitude
786.217 km
Semi-major axis
7,248.485 km
Eccentricity
0.01161
Inclination
90.2461°
RAAN
259.4009°
Arg. of periapsis
331.6206°
True anomaly
28.49828°
Mean anomaly
27.8685°
Eccentric anomaly
28.18258°
Mean motion
3.517 °/min
Orbital period
102.36 mins
BSTAR
0.0001228
Loading maneuver chart data...
Computing Atmospheric mass density...
Loading historical data...
Loading historical data...
Loading historical data...
Loading historical data...
Loading historical data...
Loading historical data...
Loading historical data...

Documentation

Showing up to 5 results
|